[[{"header":{"parameterUnit":"m.s-1","parameterCategory":1,"la1":30.2991,"la2":30.254,"lo1":-89.0895,"lo2":-89.0444,"dy":0.0017,"dx":0.0017,"nx":28,"ny":28,"refTime":"2025-12-16T09:00:00:Z","depth":0,"parameterNumber":2,"parameterNumberName":"U-component_of_WINDS"},"data":[0,0,0,0,0,0,0,0,0,0,0,0,0,0,0,0,0,0,0,0,0,0,0,0,0,0,0,0,0,0,0,0,0,0,0,0,0,0,0,0,0,0,0,0,0,0,0,0,0,0,0,0,0,0,0,0,0,0,-6.5155,-6.5156,0,-6.5207,-6.5207,-6.5208,-6.5081,-6.5077,-6.5073,-6.5069,-6.512,-6.5125,-6.513,0,0,0,0,0,0,0,0,0,0,0,0,0,-6.4948,-6.4952,-6.5155,-6.5156,-6.5157,-6.5207,-6.5207,-6.5208,-6.5082,-6.5077,-6.5072,-6.5068,-6.5118,-6.5124,-6.513,0,0,0,0,0,0,0,0,0,0,0,0,0,-6.5023,-6.4954,-6.5155,-6.51,-6.5095,-6.5206,-6.5207,-6.5208,-6.5083,-6.5077,-6.5071,-6.5065,-6.5116,-6.5124,-6.5131,-6.5298,0,0,-6.5154,-6.5157,0,0,0,0,0,0,0,0,-6.5018,-6.503,-6.5107,-6.5104,-6.5099,-6.5131,-6.5152,-6.5238,-6.5084,-6.5088,-6.5069,-6.5062,-6.5128,-6.5135,-6.5157,-6.53,-6.5302,-6.5155,-6.5159,-6.5163,-6.5165,0,0,0,0,0,0,0,-6.5013,-6.5027,-6.5175,-6.5108,-6.5103,-6.5072,-6.5076,-6.5168,-6.5141,-6.5087,-6.5078,-6.5086,-6.5125,-6.515,-6.5157,-6.5303,-6.5155,-6.5161,-6.5166,-6.5169,-6.5588,-6.5594,0,0,0,0,0,0,-6.5016,-6.5024,-6.5174,-6.5177,-6.5043,-6.5081,-6.5085,-6.5127,-6.5139,-6.5136,-6.5091,-6.508,-6.514,-6.5149,-6.5159,-6.5356,-6.5163,-6.517,-6.5174,-6.5581,-6.5589,-6.5596,0,0,0,0,0,0,-6.5012,-6.503,-6.5172,-6.5098,-6.5114,-6.5091,-6.5139,-6.5131,-6.5156,-6.5142,-6.5137,-6.5122,-6.5136,-6.5148,-6.5265,-6.5356,-6.5173,-6.518,-6.5573,-6.5583,-6.5593,-6.5751,0,0,0,0,0,0,-6.5006,-6.5029,-6.5092,-6.51,-6.5118,-6.5277,-6.5144,-6.5136,-6.517,-6.5156,-6.517,-6.5166,-6.5132,-6.5254,-6.5272,-6.5363,-6.5186,-6.5565,-6.5578,-6.5589,-6.5737,-6.5765,-6.5788,0,0,0,0,0,-6.4999,-6.5134,-6.5096,-6.5115,-6.5196,-6.5283,-6.5293,-6.5251,-6.5178,-6.5241,-6.5233,-6.5166,-6.5344,-6.5267,-6.5287,-6.5381,-6.5559,-6.5574,-6.5588,-6.5726,-6.5759,-6.5788,0,0,0,0,0,0,-6.5134,-6.5133,-6.5092,-6.5233,-6.5259,-6.5261,-6.5339,-6.5287,-6.5334,-6.5319,-6.5265,-6.5269,-6.5396,-6.54,-6.5315,-6.5544,-6.5439,-6.5458,-6.5536,-6.5568,-6.5593,-6.5589,-6.5192,0,0,0,0,0,-6.5181,-6.5252,-6.5247,-6.5372,-6.5388,-6.5362,-6.5398,-6.5364,-6.5388,-6.5398,-6.5398,-6.5424,-6.5486,-6.5527,-6.5583,-6.5738,-6.574,-6.5813,-6.5838,-6.5859,-6.5876,-6.596,-6.5993,-6.5645,-6.5644,-6.5644,0,0,-6.5277,-6.5286,-6.5333,-6.54,-6.5416,-6.549,-6.5372,-6.5455,-6.551,-6.541,-6.5521,-6.5523,-6.5548,-6.5686,-6.5746,-6.5693,-6.5973,-6.5878,-6.5895,-6.59,-6.5979,-6.6012,-6.6041,-6.5655,-6.5653,-6.5651,0,0,-6.5491,-6.5504,-6.5611,-6.563,-6.5657,-6.564,-6.5666,-6.5677,-6.5675,-6.5786,-6.5714,-6.5778,-6.5885,-6.5907,-6.5932,-6.6159,-6.61,-6.6179,-6.6312,-6.6394,-6.6422,-6.6446,-6.6527,-6.6557,-6.6196,-6.6197,-6.6197,0,-6.5606,-6.5716,-6.5672,-6.5761,-6.5793,-6.5709,-6.5817,-6.5838,-6.5882,-6.5906,-6.5847,-6.5981,-6.5992,-6.6134,-6.619,-6.6213,-6.6242,-6.6176,-6.6421,-6.6445,-6.6467,-6.6544,-6.6575,-6.6206,-6.6205,-6.6204,-6.6203,0,-6.5858,-6.5936,-6.6018,-6.6065,-6.6106,-6.6204,-6.6175,-6.6223,-6.6187,-6.6176,-6.6291,-6.6303,-6.636,-6.6392,-6.6356,-6.653,-6.6496,-6.6431,-6.6323,-6.651,-6.6582,-6.6611,-6.622,-6.6216,-6.6213,-6.6211,0,0,-6.6154,-6.6178,-6.6209,-6.623,-6.6256,-6.6315,-6.6411,-6.6469,-6.6511,-6.6545,-6.6624,-6.6719,-6.6659,-6.6688,-6.6655,-6.6728,-6.6908,-6.6652,-6.6652,-6.67,-6.7101,-6.715,-6.7185,-6.687,-6.6876,-6.688,-6.7099,0,-6.6365,-6.6529,-6.6494,-6.6656,-6.6728,-6.6652,-6.6735,-6.6761,-6.6755,-6.6815,-6.6807,-6.6876,-6.6791,-6.6808,-6.6877,-6.6872,-6.6988,-6.6855,-6.6943,-6.6946,-6.6938,-6.7222,-6.7273,-6.748,-6.7127,-6.7131,-6.7135,0,-6.6632,-6.6679,-6.6848,-6.6866,-6.6894,-6.697,-6.7022,-6.7081,-6.7109,-6.7099,-6.7134,-6.7088,-6.7183,-6.7078,-6.7209,-6.712,-6.7154,-6.7157,-6.7164,-6.717,-6.7051,-6.7235,-6.7544,-6.7575,-6.7178,-6.7175,-6.7172,0,-6.6831,-6.6937,-6.7052,-6.7073,-6.7096,-6.7151,-6.7163,-6.7185,-6.7224,-6.7269,-6.7294,-6.735,-6.738,-6.7425,-6.7396,-6.7321,-6.7533,-6.7424,-6.7528,-6.7529,-6.7574,-6.7571,-6.7893,-6.7598,-6.7598,-6.7597,-6.7596,0,-6.707,-6.7177,-6.7143,-6.7214,-6.7332,-6.7291,-6.7409,-6.7412,-6.7434,-6.7504,-6.7442,-6.751,-6.7468,-6.7533,-6.7511,-6.7624,-6.7638,-6.7633,-6.7625,-6.7638,-6.7639,-6.7658,-6.7643,-6.7605,-6.7603,-6.7602,-6.76,0,-6.7311,-6.7293,-6.7414,-6.7427,-6.7433,-6.752,-6.7531,-6.7598,-6.7588,-6.7679,-6.7698,-6.7683,-6.7757,-6.7733,-6.7811,-6.7796,-6.794,-6.7914,-6.7931,-6.7924,-6.8029,-6.802,-6.8374,-6.8419,-6.8096,-6.8099,-6.8102,0,-6.7464,-6.7545,-6.7568,-6.7612,-6.7629,-6.7699,-6.7739,-6.7704,-6.7747,-6.7788,-6.785,-6.7918,-6.7971,-6.8092,-6.8088,-6.8148,-6.8123,-6.8244,-6.8132,-6.8143,-6.8125,-6.812,-6.8129,-6.8265,-6.8269,-6.8272,-6.8274,0,-6.7737,-6.7725,-6.7785,-6.7843,-6.7893,-6.7937,-6.7974,-6.8014,-6.7981,-6.8034,-6.8109,-6.815,-6.8232,-6.8301,-6.8356,-6.8368,-6.8317,-6.831,-6.8337,-6.835,-6.8356,-6.8355,-6.7991,-6.8302,-6.8299,-6.8297,-6.8295,-6.8294,-6.7938,-6.8008,-6.8036,-6.8105,-6.8131,-6.8169,-6.8233,-6.8234,-6.8296,-6.836,-6.8336,-6.8423,-6.8451,-6.8521,-6.8541,-6.8609,-6.8562,-6.8602,-6.8612,-6.8622,-6.8635,-6.8348,-6.8619,-6.8618,-6.8617,-6.8617,-6.8616,0,-6.8208,-6.8224,-6.8288,-6.8345,-6.8401,-6.835,-6.839,-6.844,-6.8517,-6.8549,-6.8603,-6.8691,-6.8759,-6.8762,-6.8826,-6.8879,-6.8858,-6.8897,-6.8892,-6.8896,-6.8673,-6.8643,-6.8914,-6.8914,-6.8914,-6.8914,-6.8914,-6.8914,-6.8355,-6.847,-6.8462,-6.859,-6.8604,-6.869,-6.8718,-6.8753,-6.8779,-6.888,-6.8937,-6.8939,-6.896,-6.9025,-6.9086,-6.9085,-6.9111,-6.916,-6.9151,-6.8941,-6.8912,-6.8883,-6.8855,-6.9166,-6.9167,-6.9368,-6.937,-6.9371]},{"header":{"parameterUnit":"m.s-1","parameterCategory":1,"la1":30.2991,"la2":30.254,"lo1":-89.0895,"lo2":-89.0444,"dy":0.0017,"dx":0.0017,"nx":28,"ny":28,"refTime":"2025-12-16T09:00:00:Z","depth":0,"parameterNumber":3,"parameterNumberName":"V-component_of_WINDS"},"data":[0,0,0,0,0,0,0,0,0,0,0,0,0,0,0,0,0,0,0,0,0,0,0,0,0,0,0,0,0,0,0,0,0,0,0,0,0,0,0,0,0,0,0,0,0,0,0,0,0,0,0,0,0,0,0,0,0,0,0.8968,0.8968,0,0.9019,0.902,0.9021,0.9053,0.9053,0.9054,0.9054,0.9105,0.9106,0.9107,0,0,0,0,0,0,0,0,0,0,0,0,0,0.8897,0.8898,0.8968,0.8968,0.8969,0.9019,0.902,0.9021,0.9053,0.9053,0.9054,0.9054,0.9105,0.9106,0.9107,0,0,0,0,0,0,0,0,0,0,0,0,0,0.8936,0.8898,0.8967,0.8991,0.8994,0.9019,0.902,0.9021,0.9053,0.9053,0.9054,0.9054,0.9104,0.9106,0.9108,0.9113,0,0,0.9113,0.9114,0,0,0,0,0,0,0,0,0.8933,0.8938,0.8987,0.899,0.8993,0.903,0.9014,0.9052,0.9053,0.9031,0.9054,0.9054,0.908,0.9084,0.9093,0.9115,0.9117,0.9113,0.9114,0.9115,0.9116,0,0,0,0,0,0,0,0.8931,0.8936,0.8988,0.8988,0.8991,0.8999,0.9005,0.9021,0.9053,0.9033,0.9035,0.9041,0.9081,0.9091,0.9094,0.9118,0.9113,0.9115,0.9116,0.9116,0.915,0.915,0,0,0,0,0,0,0.8924,0.8934,0.8986,0.899,0.8963,0.9,0.9007,0.9018,0.9053,0.9058,0.9041,0.9042,0.9088,0.9092,0.9096,0.9106,0.9115,0.9117,0.9118,0.9151,0.915,0.915,0,0,0,0,0,0,0.8923,0.8929,0.8984,0.8962,0.897,0.9001,0.9013,0.9019,0.9028,0.9059,0.9065,0.9044,0.9088,0.9093,0.9109,0.9108,0.9117,0.9119,0.9151,0.9151,0.915,0.9125,0,0,0,0,0,0,0.8921,0.8928,0.893,0.8962,0.8971,0.8996,0.9013,0.9019,0.9031,0.9034,0.9064,0.9069,0.9089,0.9106,0.9111,0.9111,0.912,0.9151,0.9151,0.915,0.9126,0.9124,0.9122,0,0,0,0,0,0.8918,0.892,0.893,0.8936,0.8975,0.8996,0.9001,0.9024,0.9031,0.9034,0.9054,0.9068,0.9108,0.9108,0.9113,0.9113,0.9151,0.9151,0.915,0.9127,0.9125,0.9122,0,0,0,0,0,0,0.8885,0.8924,0.8936,0.8949,0.8969,0.9002,0.9006,0.902,0.9039,0.904,0.9067,0.9074,0.9087,0.9102,0.9101,0.9122,0.9131,0.9132,0.9112,0.9109,0.9107,0.9104,0.9122,0,0,0,0,0,0.888,0.8895,0.8928,0.8936,0.8946,0.8974,0.8984,0.9,0.9022,0.9031,0.9052,0.9072,0.909,0.91,0.9118,0.9129,0.9136,0.9132,0.913,0.9128,0.9128,0.9137,0.9136,0.9149,0.9149,0.9149,0,0,0.8868,0.8891,0.8899,0.893,0.8948,0.8963,0.8981,0.8995,0.9007,0.9033,0.905,0.9066,0.9091,0.9105,0.9112,0.9117,0.9127,0.9128,0.9126,0.9127,0.9137,0.9136,0.9134,0.9149,0.9149,0.9149,0,0,0.8855,0.8873,0.8883,0.8901,0.8929,0.8948,0.895,0.8981,0.8994,0.9011,0.9032,0.9046,0.9074,0.9092,0.9105,0.9101,0.9115,0.9106,0.9095,0.9104,0.9103,0.9102,0.9102,0.9101,0.9106,0.9106,0.9106,0,0.8837,0.886,0.8886,0.89,0.8914,0.894,0.895,0.8966,0.8997,0.9006,0.9012,0.9051,0.9069,0.9088,0.9088,0.9097,0.9101,0.9102,0.9101,0.91,0.91,0.91,0.91,0.9105,0.9105,0.9105,0.9105,0,0.8837,0.8854,0.8858,0.8889,0.8904,0.8915,0.8944,0.8955,0.8971,0.8989,0.9008,0.9031,0.9055,0.9061,0.9075,0.9083,0.9085,0.9096,0.9106,0.9097,0.9098,0.9098,0.9103,0.9103,0.9104,0.9104,0,0,0.8803,0.8851,0.8852,0.8867,0.8901,0.8914,0.8928,0.8952,0.8962,0.8983,0.8996,0.9021,0.9032,0.9046,0.9063,0.907,0.9068,0.908,0.9081,0.9078,0.9079,0.9071,0.9071,0.9078,0.9078,0.9078,0.9077,0,0.8795,0.8822,0.8847,0.8865,0.8881,0.8908,0.892,0.8942,0.8961,0.8977,0.8997,0.9015,0.9027,0.9036,0.9045,0.9066,0.9068,0.9066,0.909,0.9091,0.9083,0.9071,0.9063,0.9061,0.9078,0.9078,0.9078,0,0.8789,0.8811,0.8831,0.8865,0.8873,0.8884,0.8909,0.8925,0.8951,0.8964,0.8981,0.9,0.9017,0.9025,0.9049,0.9047,0.9059,0.9071,0.9072,0.9075,0.9084,0.9075,0.9061,0.9061,0.9078,0.9078,0.9078,0,0.8764,0.8798,0.8816,0.8828,0.8867,0.8875,0.8892,0.8918,0.8932,0.8954,0.8964,0.8987,0.9,0.9018,0.9042,0.9046,0.9064,0.9074,0.9076,0.9075,0.9078,0.9078,0.9067,0.9085,0.9085,0.9085,0.9085,0,0.8753,0.8764,0.8805,0.8815,0.883,0.8859,0.8872,0.8891,0.8915,0.893,0.8953,0.8967,0.8999,0.9016,0.9035,0.9053,0.9058,0.907,0.9075,0.9068,0.9067,0.9076,0.9077,0.9085,0.9085,0.9085,0.9085,0,0.8726,0.8754,0.8775,0.8812,0.8821,0.883,0.8862,0.8873,0.8894,0.8913,0.8919,0.8951,0.8973,0.9,0.903,0.9043,0.906,0.9067,0.9051,0.9054,0.9054,0.9054,0.9049,0.905,0.9067,0.9066,0.9066,0,0.8718,0.8728,0.8766,0.8779,0.8795,0.8814,0.8829,0.8859,0.8873,0.8905,0.8913,0.8937,0.8958,0.8992,0.9018,0.9042,0.905,0.9047,0.9054,0.9047,0.9051,0.9051,0.9053,0.9045,0.9045,0.9044,0.9044,0,0.87,0.8714,0.8734,0.8761,0.8778,0.88,0.8823,0.8831,0.8866,0.8881,0.8904,0.8921,0.8953,0.8977,0.9005,0.9022,0.9039,0.9042,0.9044,0.9037,0.9028,0.9034,0.9047,0.9042,0.9042,0.9042,0.9042,0.9043,0.8682,0.8693,0.8723,0.8746,0.8767,0.8788,0.8801,0.8825,0.8845,0.8875,0.8891,0.8914,0.8942,0.8981,0.8998,0.9017,0.9023,0.9025,0.9026,0.9026,0.9024,0.9025,0.9022,0.9022,0.9022,0.9022,0.9022,0,0.8667,0.8688,0.8709,0.8741,0.8759,0.8775,0.8802,0.8816,0.8837,0.8862,0.8883,0.8911,0.8935,0.8964,0.899,0.9,0.9008,0.9006,0.9005,0.9009,0.9017,0.9013,0.8998,0.8998,0.8998,0.8998,0.8998,0.8998,0.866,0.868,0.8698,0.8729,0.875,0.8774,0.8788,0.8808,0.8829,0.8859,0.888,0.8899,0.8926,0.8955,0.8978,0.8986,0.8994,0.8989,0.9,0.9006,0.9008,0.901,0.9007,0.8991,0.8991,0.899,0.899,0.899]}]]